Regional Weather Roundup
Issued by NWS

Home | Current Version | Previous Version | Graphics & Text | Print | Product List | Glossary On
Versions: 1 2 3 4 5 6 7 8 9 10 11 12 13 14 15 16 17 18 19 20 21 22 23 24 25 26 27 28 29 30 31 32 33 34 35 36 37 38 39 40 41 42 43 44 45 46 47 48 49 50
000
ASUS43 KLOT 222109
RWRIL

ILLINOIS REGIONAL WEATHER ROUNDUP
NATIONAL WEATHER SERVICE CHICAGO/ROMEOVILLE IL
400 PM CDT FRI SEP 22 2017

NOTE: "FAIR" INDICATES FEW OR NO CLOUDS BELOW 12,000 FEET WITH NO
SIGNIFICANT WEATHER AND/OR OBSTRUCTIONS TO VISIBILITY.

* THESE STATIONS ARE NOT UNDER NWS QUALITY CONTROL. THEY ALSO MAY NOT
  REPORT WEATHER SUCH AS PRECIPITATION OR FOG.

ILZ001-002-007-009-015-016-024-222200-
NORTHWEST ILLINOIS

CITY           SKY/WX    TMP DP  RH WIND       PRES   REMARKS
MOLINE         SUNNY     93  65  39 S12       29.97F HX  95
STERLING*      SUNNY     93  65  39 VRB3      30.00F HX  95
SAVANNA*       SUNNY     92  66  41 SW10      29.98F HX  95
$$

ILZ003-004-008-010-011-017-018-222200-
NORTH CENTRAL ILLINOIS

CITY           SKY/WX    TMP DP  RH WIND       PRES   REMARKS
ROCKFORD       MOSUNNY   91  64  40 SW13      30.02F HX  92
FREEPORT*      SUNNY     90  65  42 S10       30.03S HX  92
ROCHELLE*      SUNNY     92  65  41 S8        30.02F HX  94
DE KALB*       SUNNY     92  64  39 S10       30.04F HX  93
PERU*          SUNNY     91  63  38 S7        30.02F HX  92
$$

ILZ005-006-012>014-019>023-222200-
NORTHEAST ILLINOIS

CITY           SKY/WX    TMP DP  RH WIND       PRES   REMARKS
CHICAGO-OHARE  MOSUNNY   94  62  34 VRB5      30.01F HX  94
CHICAGO-MIDWAY MOSUNNY   94  65  38 S8        30.01F HX  96
AURORA         SUNNY     93  66  40 SW9       30.03F HX  96
LANSING*       SUNNY     92  69  46 S6        30.03F HX  96
JOLIET*        SUNNY     94  66  39 SW6       30.02F HX  97
WAUKEGAN       SUNNY     86  69  56 SE10      30.03S HX  90
DUPAGE AIRPORT SUNNY     93  64  38 SW9       30.02F HX  94
KANKAKEE*      SUNNY     91  66  43 SE5       30.04F HX  94
WHEELING       SUNNY     95  63  34 SW3       30.03F HX  96
MORRIS*        SUNNY     93  64  38 SE6       30.01F HX  94
ROMEOVILLE*    MOSUNNY   93  63  37 SW5       30.03S HX  94
NORTHERLY ISL    N/A     81  68  64 S3          N/A  HX  84
$$

LMZ740>746-222200-
SOUTHERN LAKE MICHIGAN

STATION/POSITION SKY/WX   TEMP    WIND        PRES    VSBY  WAVE
                          AIR SEA DIR/SP/G                  HT/PER
                          (F)     (DEG/KT/KT) (MB)    (MI)  (FT/S)
SOUTHERN BUOY              72 70  130/  6/  6 1017.8          0
WILMETTE HARBOR            76 73  120/  8/ 10   N/A           1/ 2
HARRISON CRIB              81     110/ 15/ 15   N/A
BURNHAM HARBOR             81                   N/A
CALUMET HARBOR             85      90/  6/  8 1016.2F
BURNS HARBOR               82      80/  8/  8 1017.6F
MICHIGAN CITY              78      40/  9/ 10   N/A
MICHIGAN CITY 6N           79 76   50/  4/  6   N/A           0
ST. JOSEPH                 80 74   60/  4/  4 1017.0          0
$$

ILZ025>027-034>036-040-047-049-050-058-095>099-222200-
WEST-CENTRAL ILLINOIS

CITY           SKY/WX    TMP DP  RH WIND       PRES   REMARKS
QUINCY         SUNNY     92  64  39 S12       29.98F HX  93
GALESBURG*     SUNNY     91  65  42 S9        30.00F HX  94
MACOMB*        SUNNY     94  62  34 SW10G16   30.01F HX  94
JACKSONVILLE*  MOSUNNY   93  63  35 SE13G20   29.99F HX  94
PITTSFIELD*    MOSUNNY   93  65  39 SE7       30.01F HX  95
$$

ILZ028>032-037-038-041>044-048-051>054-059>061-222200-
CENTRAL ILLINOIS

CITY           SKY/WX    TMP DP  RH WIND       PRES   REMARKS
PONTIAC        MOSUNNY   94  65  37 S6        30.03F HX  96
BLOOMINGTON    MOSUNNY   92  66  42 SW6       30.03F HX  94
DECATUR        SUNNY     91  64  40 CALM      30.01F HX  92
PEORIA         MOSUNNY   94  64  37 S12       30.00F HX  95
LACON*         SUNNY     93  65  39 SW7       30.00F HX  95
LINCOLN*       PTSUNNY   94  65  38 S6        30.00F HX  96
SPRINGFIELD    SUNNY     94  64  37 S7        30.01F HX  95
TAYLORVILLE    MOSUNNY   93  62  35 CALM      30.01F HX  93
$$

ILZ033-039-045-046-055>057-062-063-222200-
EAST-CENTRAL ILLINOIS

CITY           SKY/WX    TMP DP  RH WIND       PRES   REMARKS
CHAMPAIGN      MOSUNNY   92  61  35 SE5       30.02F HX  92
RANTOUL*       MOSUNNY   93  66  40 SE7       30.02F HX  96
MATTOON        MOSUNNY   92  64  39 S8        30.01F HX  93
PARIS*         SUNNY     92  66  42 SE5       30.02F HX  95
$$

ILZ079-100>102-222200-
SOUTHWEST ILLINOIS

CITY           SKY/WX    TMP DP  RH WIND       PRES   REMARKS
ALTON          MOSUNNY   93  66  40 S6        30.00F HX  96
BELLEVILLE     SUNNY     95  61  32 S7        29.98F HX  95
CAHOKIA*       MOSUNNY   97  61  30 SE13      29.98F HX  97
SPARTA*        PTSUNNY   92  65  41 CALM      30.01F HX  93
$$

ILZ064>066-069>071-074>076-080>082-084>086-088>090-092>094-222200-
SOUTH-CENTRAL ILLINOIS

CITY           SKY/WX    TMP DP  RH WIND       PRES   REMARKS
CARBONDALE     SUNNY     91  66  43 SE3       29.99F HX  93
CAIRO*         SUNNY     89  71  55 S5        29.99F HX  94
EFFINGHAM*     MOSUNNY   94  63  35 E5        30.02F HX  95
MARION         MOSUNNY   93  63  36 NE8       30.01F HX  94
MT. VERNON       N/A     93  65  39 S6        30.00F HX  95
CENTRALIA*     PTSUNNY   95  67  39 S12       29.99F HX  99
SALEM*         MOSUNNY   95  61  32 SE6       30.00F HX  95
METROPOLIS*    SUNNY     91  67  45 S6        30.00F HX  94
$$

ILZ067-068-072-073-078-083-087-091-222200-
SOUTHEAST ILLINOIS

CITY           SKY/WX    TMP DP  RH WIND       PRES   REMARKS
LAWRENCEVILLE  MOSUNNY   91  69  48 S6        30.00F HX  96
FLORA*         MOSUNNY   94  67  40 E6        30.00F HX  97
FAIRFIELD*     MOSUNNY   91  64  40 CALM      29.99F HX  92
HARRISBURG*    MOSUNNY   94  65  38 SE6       30.00F HX  96
ROBINSON*      MOSUNNY   91  68  46 NE5       30.02F HX  95
CARMI*         MOSUNNY   94  66  39 E5        30.00F HX  96
$$

ABBREVIATIONS USED IN REMARKS
   TC - TEMPERATURE IN CELSIUS
  WCI - WIND CHILL INDEX
   HX - HEAT INDEX
  VSB - VISIBILITY
$$





USA.gov is the U.S. government's official web portal to all federal, state and local government web resources and services.